User: anonymous   Login
Location: Grand Rapids
(42.9630°N, 85.6680°W)
Time: 15:11:48
(UTC-04:00)
Language:

Envisat - Orbit

View from above orbital plane
View from above orbital plane
View from above satellite
View from above satellite

Ground track
Ground track

The orbit data is extracted from the following two-line orbital elements,

1 27386U 02009A   24141.49032545  .00000461  00000-0  16427-3 0  9995
2 27386  98.2805 103.5446 0001199  89.3805  19.4552 14.38574247164592
Epoch (UTC): 20 May 2024 11:46:04
Eccentricity: 0.0001199
inclination: 98.2805°
perigee height: 762 km
apogee height: 764 km
right ascension of ascending node: 103.5446°
argument of perigee: 89.3805°
revolutions per day: 14.38574247
mean anomaly at epoch: 19.4552°
orbit number at epoch: 16459

The dashed part of the orbit path shows where the satellite is in the earth's shadow,  

DLR